Bradford, PA

6:07 AM EST on January 18, 2018 (GMT -0500)
Bradford Regional

Weather History for KBFD - May, 2013

Change the Weather History Date:

Sunday, May 12, 2013

  Actual Average Record
Temperature  
Mean Temperature 42 °F 52 °F  
Max Temperature 48 °F 65 °F 80 °F (1991)
Min Temperature 35 °F 39 °F 25 °F (1963)
Degree Days  
Heating Degree Days 24 9  
Month to date heating degree days 120  
Since 1 July heating degree days 7371  
Cooling Degree Days 0 0  
Month to date cooling degree days 0  
Year to date cooling degree days 2  
Moisture  
Dew Point 32 °F    
Average Humidity 72    
Maximum Humidity 83    
Minimum Humidity 48    
Precipitation  
Precipitation 0.07 in 0.13 in 1.52 in (1974)
Month to date precipitation 1.52  
Year to date precipitation 14.08  
Sea Level Pressure  
Sea Level Pressure 29.85 in    
Wind  
Wind Speed 10 mph (West)    
Max Wind Speed 21 mph    
Max Gust Speed 32 mph    
Visibility 8 miles    
Events Rain , Snow    
T = Trace of Precipitation, MM = Missing Value Source: NWS Daily Summary

Daily Weather History Graph

Daily Weather History Graph

Search for Another Location

Airport or City:

Trip Planner

Search our weather history database for the weather conditions in past years. The results will help you decide how hot, cold, wet, or windy it might be!

Date:

Astronomy

May. 12, 2013 Rise Set
Actual Time 5:57 AM EDT 8:24 PM EDT
Civil Twilight 5:26 AM EDT 8:56 PM EDT
Nautical Twilight 4:46 AM EDT 9:35 PM EDT
Astronomical Twilight 4:03 AM EDT 10:19 PM EDT
Moon 7:50 AM EDT (5/12) 10:51 PM EDT (5/12)
Length of Visible Light 15h 30m
Length of Day
14h 27m
Waxing Crescent, 6% of the Moon is Illuminated
May 12
Waxing Crescent
May 18
First Quarter
May 25
Full
May 31
Last Quarter
Jun 8
New

Hourly Weather History & Observations

Time (EDT) Temp. Windchill Dew Point Humidity Pressure Visibility Wind Dir Wind Speed Gust Speed Precip Events Conditions
12:53 AM 46.9 °F - 42.1 °F 83% 29.77 in 8.0 mi Variable 6.9 mph - N/A   Mostly Cloudy
12:59 AM 48.0 °F - 42.1 °F 80% 29.76 in 8.0 mi WSW 8.1 mph - N/A   Mostly Cloudy
1:35 AM 48.0 °F - 43.0 °F 83% 29.76 in 5.0 mi Variable 5.8 mph - 0.00 in Rain Light Rain
1:53 AM 48.0 °F - 43.0 °F 83% 29.75 in 6.0 mi WSW 6.9 mph - 0.00 in   Haze
2:16 AM 48.0 °F - 43.0 °F 83% 29.76 in 2.5 mi West 20.7 mph 32.2 mph 0.03 in Rain Rain
2:27 AM 45.0 °F 38.2 °F 39.0 °F 80% 29.77 in 5.0 mi West 15.0 mph 27.6 mph 0.03 in Rain Light Rain
2:53 AM 43.0 °F 35.7 °F 37.0 °F 80% 29.78 in 10.0 mi West 15.0 mph 24.2 mph 0.04 in   Overcast
3:07 AM 42.1 °F 35.7 °F 37.0 °F 82% 29.77 in 9.0 mi West 11.5 mph 19.6 mph 0.00 in Rain Light Rain
3:24 AM 42.1 °F 36.1 °F 37.0 °F 82% 29.77 in 10.0 mi WNW 10.4 mph - 0.00 in   Overcast
3:53 AM 41.0 °F 33.5 °F 35.1 °F 79% 29.78 in 10.0 mi NW 13.8 mph - 0.00 in   Overcast
4:09 AM 41.0 °F 34.7 °F 35.1 °F 79% 29.77 in 10.0 mi WNW 10.4 mph - 0.00 in   Overcast
4:29 AM 39.9 °F 32.5 °F 33.1 °F 77% 29.78 in 10.0 mi West 12.7 mph 24.2 mph 0.00 in   Overcast
4:53 AM 37.9 °F 29.2 °F 30.0 °F 73% 29.80 in 10.0 mi WNW 15.0 mph 24.2 mph 0.00 in   Overcast
5:53 AM 35.1 °F 27.9 °F 27.0 °F 72% 29.83 in 10.0 mi WNW 9.2 mph - N/A   Scattered Clouds
6:01 AM 35.1 °F 28.6 °F 27.0 °F 72% 29.81 in 10.0 mi WNW 8.1 mph - N/A   Mostly Cloudy
6:17 AM 35.1 °F 29.3 °F 27.0 °F 72% 29.81 in 10.0 mi West 6.9 mph - N/A   Scattered Clouds
6:39 AM 35.1 °F 32.2 °F 28.0 °F 76% 29.82 in 10.0 mi West 3.5 mph - N/A   Mostly Cloudy
6:53 AM 35.1 °F 30.1 °F 28.0 °F 76% 29.84 in 10.0 mi West 5.8 mph - N/A   Mostly Cloudy
7:53 AM 36.0 °F 32.1 °F 28.9 °F 76% 29.85 in 10.0 mi Variable 4.6 mph - N/A   Overcast
8:53 AM 39.0 °F 32.3 °F 28.9 °F 67% 29.85 in 10.0 mi West 10.4 mph - N/A   Mostly Cloudy
9:23 AM 41.0 °F 34.3 °F 28.0 °F 60% 29.82 in 10.0 mi WSW 11.5 mph 21.9 mph N/A   Mostly Cloudy
9:53 AM 43.0 °F 35.7 °F 26.1 °F 51% 29.83 in 10.0 mi West 15.0 mph 20.7 mph N/A   Mostly Cloudy
10:53 AM 43.0 °F 36.4 °F 25.0 °F 49% 29.82 in 10.0 mi West 12.7 mph 24.2 mph N/A   Overcast
11:53 AM 41.0 °F 35.8 °F 30.0 °F 65% 29.84 in 10.0 mi SW 8.1 mph 23.0 mph 0.00 in   Overcast
12:16 PM 37.9 °F 28.9 °F 30.9 °F 76% 29.84 in 1.8 mi West 16.1 mph 23.0 mph 0.00 in Snow Light Snow
12:21 PM 36.0 °F 26.7 °F 30.9 °F 82% 29.84 in 0.8 mi West 15.0 mph 23.0 mph 0.01 in Snow Light Snow
12:31 PM 36.0 °F 30.3 °F 30.9 °F 82% 29.83 in 1.0 mi Variable 6.9 mph 23.0 mph 0.01 in Snow Light Snow
12:34 PM 37.9 °F 32.1 °F 32.0 °F 79% 29.83 in 2.0 mi West 8.1 mph - 0.01 in Snow Light Snow
12:41 PM 39.0 °F 33.4 °F 33.1 °F 79% 29.83 in 9.0 mi WSW 8.1 mph - 0.01 in   Overcast
12:53 PM 42.1 °F 35.2 °F 34.0 °F 73% 29.84 in 10.0 mi West 12.7 mph 21.9 mph 0.01 in   Mostly Cloudy
1:36 PM 41.0 °F 33.9 °F 32.0 °F 70% 29.83 in 10.0 mi WNW 12.7 mph 20.7 mph 0.00 in   Overcast
1:53 PM 43.0 °F 36.0 °F 30.9 °F 62% 29.85 in 10.0 mi WNW 13.8 mph 20.7 mph 0.00 in Rain Light Rain
2:18 PM 43.0 °F 36.8 °F 30.0 °F 60% 29.83 in 10.0 mi West 11.5 mph 24.2 mph 0.00 in   Overcast
2:53 PM 46.0 °F 41.4 °F 30.0 °F 54% 29.85 in 10.0 mi West 9.2 mph 21.9 mph 0.00 in   Scattered Clouds
3:53 PM 45.0 °F 38.2 °F 26.1 °F 48% 29.86 in 10.0 mi WNW 15.0 mph 24.2 mph 0.01 in   Overcast
4:53 PM 45.0 °F 38.9 °F 26.1 °F 48% 29.88 in 10.0 mi West 12.7 mph 25.3 mph 0.00 in Rain Light Rain
5:53 PM 39.9 °F 33.4 °F 28.9 °F 65% 29.92 in 10.0 mi West 10.4 mph 16.1 mph 0.00 in Rain Light Rain
6:53 PM 41.0 °F 34.3 °F 28.0 °F 60% 29.92 in 10.0 mi West 11.5 mph 20.7 mph 0.00 in   Scattered Clouds
7:53 PM 41.0 °F 35.2 °F 27.0 °F 57% 29.93 in 10.0 mi West 9.2 mph 18.4 mph 0.00 in   Overcast
8:53 PM 41.0 °F 35.8 °F 25.0 °F 53% 29.93 in 10.0 mi West 8.1 mph - 0.00 in   Overcast
9:53 PM 37.9 °F 29.2 °F 30.0 °F 73% 29.96 in 10.0 mi WNW 15.0 mph 24.2 mph 0.00 in Snow Light Snow
10:04 PM 37.0 °F 28.1 °F 30.0 °F 76% 29.93 in 8.0 mi WNW 15.0 mph 25.3 mph 0.00 in Snow Light Snow
10:20 PM 36.0 °F 29.0 °F 30.9 °F 82% 29.93 in 5.0 mi West 9.2 mph 21.9 mph 0.01 in Snow Light Snow
10:31 PM 37.0 °F 29.3 °F 30.0 °F 76% 29.94 in 9.0 mi West 11.5 mph 18.4 mph 0.01 in   Overcast
10:38 PM 37.0 °F 29.8 °F 30.0 °F 76% 29.94 in 10.0 mi WNW 10.4 mph - 0.01 in   Overcast
10:48 PM 35.6 °F 26.6 °F 30.2 °F 81% 29.94 in 5.0 mi WNW 13.8 mph 20.7 mph 0.01 in Snow Light Snow
10:53 PM 36.0 °F 29.6 °F 30.9 °F 82% 29.98 in 5.0 mi WNW 8.1 mph 18.4 mph 0.01 in Snow Light Snow
11:21 PM 36.0 °F 25.6 °F 28.9 °F 76% 29.95 in 4.0 mi WNW 18.4 mph 25.3 mph 0.00 in Snow Light Snow
11:53 PM 35.1 °F 25.9 °F 28.0 °F 76% 30.00 in 10.0 mi WNW 13.8 mph 25.3 mph 0.00 in   Overcast